Reggio Calabria, Italy

6:21 AM CEST on May 25, 2017 (GMT +0200)
Reggio Calabria

Weather History for LICR - January, 2013

Change the Weather History Date:

Saturday, January 26, 2013

  Actual Average Record
Temperature  
Mean Temperature 52 °F -  
Max Temperature 57 °F 57 °F 64 °F (2001)
Min Temperature 46 °F 46 °F 39 °F (2011)
Degree Days  
Heating Degree Days 14    
Growing Degree Days 2 (Base 50)    
Moisture  
Dew Point 42 °F    
Average Humidity 73    
Maximum Humidity 93    
Minimum Humidity 54    
Precipitation  
Precipitation 0.00 in - - ()
Sea Level Pressure  
Sea Level Pressure 29.67 in    
Wind  
Wind Speed 10 mph ()    
Max Wind Speed 16 mph    
Max Gust Speed 20 mph    
Visibility 6.2 miles    
Events Rain , Thunderstorm    
Averages and records for this station are not official NWS values.
T = Trace of Precipitation, MM = Missing Value Source: Averaged Metar Reports

Daily Weather History Graph

Daily Weather History Graph

Search for Another Location

Airport or City:

Trip Planner

Search our weather history database for the weather conditions in past years. The results will help you decide how hot, cold, wet, or windy it might be!

Date:

Astronomy

Jan. 26, 2013 Rise Set
Actual Time 7:06 AM CET 5:13 PM CET
Civil Twilight 6:38 AM CET 5:41 PM CET
Nautical Twilight 6:06 AM CET 6:13 PM CET
Astronomical Twilight 5:35 AM CET 6:44 PM CET
Moon 4:50 PM CET (1/26) 6:13 AM CET (1/26)
Length of Visible Light 11h 03m
Length of Day
10h 07m
Waxing Gibbous, 99% of the Moon is Illuminated
Jan 26
Waxing Gibbous
Jan 27
Full
Feb 3
Last Quarter
Feb 10
New
Feb 17
First Quarter

Hourly Weather History & Observations

Time (CET) Temp. Windchill Dew Point Humidity Pressure Visibility Wind Dir Wind Speed Gust Speed Precip Events Conditions
5:50 AM 50.0 °F - 42.8 °F 76% 29.53 in 6.2 mi North 6.9 mph 19.6 mph N/A   Mostly Cloudy
6:50 AM 51.8 °F - 42.8 °F 71% 29.56 in 6.2 mi NNW 12.7 mph - N/A Thunderstorm Thunderstorm
7:25 AM 48.2 °F - 42.8 °F 82% 29.59 in 6.2 mi NW 16.1 mph - N/A Rain , Thunderstorm Thunderstorms and Rain
7:42 AM 50.0 °F - 44.6 °F 82% 29.59 in 6.2 mi NW 8.1 mph - N/A Rain Light Rain
7:50 AM 48.2 °F - 42.8 °F 82% 29.59 in 6.2 mi NNW 10.4 mph - N/A Rain Light Rain
8:50 AM 51.8 °F - 42.8 °F 71% 29.59 in 6.2 mi North 11.5 mph - N/A   Mostly Cloudy
9:50 AM 53.6 °F - 41.0 °F 62% 29.62 in 6.2 mi NNW 13.8 mph - N/A   Mostly Cloudy
10:50 AM 55.4 °F - 41.0 °F 58% 29.65 in 6.2 mi NNW 13.8 mph - N/A   Scattered Clouds
11:50 AM 55.4 °F - 42.8 °F 63% 29.65 in 6.2 mi NW 13.8 mph - N/A   Scattered Clouds
12:50 PM 57.2 °F - 41.0 °F 55% 29.65 in 6.2 mi NNW 13.8 mph - N/A   Scattered Clouds
1:50 PM 55.4 °F - 39.2 °F 54% 29.65 in 6.2 mi NNW 15.0 mph - N/A   Partly Cloudy
2:50 PM 55.4 °F - 39.2 °F 54% 29.65 in 6.2 mi NNW 13.8 mph - N/A   Partly Cloudy
3:50 PM 53.6 °F - 39.2 °F 58% 29.68 in 6.2 mi NW 13.8 mph - N/A   Scattered Clouds
4:50 PM 51.8 °F - 41.0 °F 67% 29.68 in 6.2 mi NNW 11.5 mph - N/A   Scattered Clouds
5:50 PM 50.0 °F - 41.0 °F 71% 29.71 in 6.2 mi North 10.4 mph - N/A   Scattered Clouds
6:50 PM 50.0 °F - 41.0 °F 71% 29.74 in 6.2 mi NNW 6.9 mph - N/A   Scattered Clouds
7:50 PM 48.2 °F - 42.8 °F 82% 29.77 in 6.2 mi NNE 5.8 mph - N/A   Drizzle
8:50 PM 46.4 °F 41.5 °F 44.6 °F 93% 29.77 in 6.2 mi NNE 10.4 mph - N/A   Drizzle
9:50 PM 46.4 °F 42.9 °F 44.6 °F 93% 29.80 in 6.2 mi NNE 6.9 mph - N/A   Drizzle
10:50 PM 46.4 °F 41.5 °F 44.6 °F 93% 29.83 in 6.2 mi North 10.4 mph - N/A   Light Drizzle
11:50 PM 46.4 °F 44.3 °F 42.8 °F 87% 29.83 in 6.2 mi North 4.6 mph - N/A   Light Drizzle